Stündliche Wetter Holostonur

Heute, 15 Juni, Dienstag

Zeit Temperatur Niederschläge Wind Luftdruck Luftfeuchtigkeit
00:00 +19°C° 0 mm 2 m/S 753 mmHg 86%
01:00 +19°C° 0 mm 2 m/S 753 mmHg 87%
02:00 +19°C° 0 mm 2 m/S 752 mmHg 88%
03:00 +18°C° 0 mm 2 m/S 752 mmHg 89%
04:00 +19°C° 0 mm 2 m/S 752 mmHg 87%
05:00 +19°C° 0 mm 2 m/S 752 mmHg 85%
06:00 +20°C° 0 mm 2 m/S 752 mmHg 83%
07:00 +21°C° 0 mm 2 m/S 752 mmHg 76%
08:00 +24°C° 0 mm 2 m/S 752 mmHg 69%
09:00 +25°C° 0 mm 2 m/S 752 mmHg 62%
10:00 +26°C° 0 mm 2 m/S 752 mmHg 57%
11:00 +27°C° 0 mm 2 m/S 752 mmHg 52%
12:00 +29°C° 0 mm 1 m/S 752 mmHg 47%
13:00 +29°C° 0 mm 2 m/S 752 mmHg 45%
14:00 +30°C° 0 mm 2 m/S 751 mmHg 42%
15:00 +30°C° 0 mm 2 m/S 751 mmHg 40%
16:00 +30°C° 0 mm 2 m/S 751 mmHg 42%
17:00 +30°C° 0 mm 3 m/S 751 mmHg 44%
18:00 +30°C° 0 mm 3 m/S 751 mmHg 46%
19:00 +28°C° 0 mm 2 m/S 752 mmHg 50%
20:00 +26°C° 0 mm 2 m/S 752 mmHg 54%
21:00 +25°C° 0 mm 2 m/S 752 mmHg 59%
22:00 +24°C° 0 mm 1 m/S 752 mmHg 60%
23:00 +24°C° 0 mm 1 m/S 752 mmHg 61%

Morgen, 16 Juni, Mittwoch

Zeit Temperatur Niederschläge Wind Luftdruck Luftfeuchtigkeit
00:00 +23°C° 0 mm 1 m/S 752 mmHg 63%
01:00 +21°C° 0 mm 0 m/S 752 mmHg 64%
02:00 +21°C° 0 mm 0 m/S 752 mmHg 65%
03:00 +20°C° 0 mm 0 m/S 752 mmHg 67%
04:00 +21°C° 0 mm 0 m/S 753 mmHg 65%
05:00 +22°C° 0 mm 0 m/S 753 mmHg 64%
06:00 +25°C° 0 mm 1 m/S 753 mmHg 62%
07:00 +26°C° 0 mm 1 m/S 753 mmHg 57%
08:00 +28°C° 0 mm 1 m/S 753 mmHg 53%
09:00 +29°C° 0 mm 1 m/S 753 mmHg 48%
10:00 +30°C° 0 mm 2 m/S 753 mmHg 45%
11:00 +31°C° 0 mm 2 m/S 753 mmHg 43%
12:00 +32°C° 0 mm 2 m/S 753 mmHg 40%
13:00 +34°C° 0 mm 2 m/S 753 mmHg 39%
14:00 +34°C° 0 mm 3 m/S 752 mmHg 37%
15:00 +35°C° 0 mm 3 m/S 752 mmHg 35%
16:00 +35°C° 0 mm 3 m/S 752 mmHg 37%
17:00 +34°C° 0 mm 3 m/S 752 mmHg 39%
18:00 +34°C° 0 mm 3 m/S 752 mmHg 40%
19:00 +32°C° 0 mm 4 m/S 752 mmHg 44%
20:00 +29°C° 0 mm 4 m/S 752 mmHg 49%
21:00 +27°C° 0 mm 4 m/S 752 mmHg 53%
22:00 +27°C° 0 mm 5 m/S 752 mmHg 54%
23:00 +27°C° 0 mm 5 m/S 752 mmHg 55%

übermorgen, 17 Juni, Donnerstag

Zeit Temperatur Niederschläge Wind Luftdruck Luftfeuchtigkeit
00:00 +26°C° 0 mm 6 m/S 752 mmHg 56%
01:00 +26°C° 0 mm 6 m/S 752 mmHg 57%
02:00 +24°C° 0 mm 6 m/S 752 mmHg 59%
03:00 +24°C° 0 mm 6 m/S 752 mmHg 61%
04:00 +24°C° 0 mm 6 m/S 752 mmHg 63%
05:00 +24°C° 0 mm 6 m/S 752 mmHg 64%
06:00 +24°C° 0 mm 6 m/S 752 mmHg 66%
07:00 +26°C° 0 mm 6 m/S 753 mmHg 62%
08:00 +27°C° 0 mm 6 m/S 753 mmHg 59%
09:00 +28°C° 0 mm 6 m/S 753 mmHg 55%
10:00 +30°C° 0 mm 5 m/S 754 mmHg 50%
11:00 +32°C° 0 mm 5 m/S 754 mmHg 46%
12:00 +33°C° 0 mm 4 m/S 754 mmHg 41%
13:00 +34°C° 0.1 mm 4 m/S 754 mmHg 41%
14:00 +34°C° 0.1 mm 3 m/S 754 mmHg 41%
15:00 +34°C° 0.1 mm 3 m/S 754 mmHg 41%
16:00 +31°C° 0.1 mm 3 m/S 754 mmHg 47%
17:00 +30°C° 0.1 mm 4 m/S 754 mmHg 53%
18:00 +29°C° 0.1 mm 4 m/S 754 mmHg 59%
19:00 +28°C° 0.1 mm 4 m/S 755 mmHg 63%
20:00 +27°C° 0.1 mm 4 m/S 755 mmHg 66%
21:00 +26°C° 0.1 mm 3 m/S 756 mmHg 69%
22:00 +25°C° 0.8 mm 4 m/S 756 mmHg 73%
23:00 +23°C° 0.8 mm 4 m/S 756 mmHg 77%

18 Juni, Freitag

Zeit Temperatur Niederschläge Wind Luftdruck Luftfeuchtigkeit
00:00 +22°C° 0.8 mm 4 m/S 757 mmHg 81%
01:00 +22°C° 0.7 mm 4 m/S 757 mmHg 80%
02:00 +21°C° 0.7 mm 4 m/S 757 mmHg 79%
03:00 +21°C° 0.7 mm 4 m/S 758 mmHg 78%
04:00 +21°C° 0.2 mm 4 m/S 758 mmHg 76%
05:00 +20°C° 0.2 mm 3 m/S 758 mmHg 73%
06:00 +20°C° 0.2 mm 3 m/S 759 mmHg 70%
07:00 +21°C° 0 mm 4 m/S 759 mmHg 64%
08:00 +22°C° 0 mm 5 m/S 759 mmHg 58%
09:00 +23°C° 0 mm 6 m/S 759 mmHg 52%
10:00 +24°C° 0 mm 6 m/S 760 mmHg 47%
11:00 +26°C° 0 mm 6 m/S 760 mmHg 42%
12:00 +27°C° 0 mm 6 m/S 760 mmHg 36%
13:00 +28°C° 0 mm 6 m/S 760 mmHg 35%
14:00 +28°C° 0 mm 6 m/S 760 mmHg 34%
15:00 +29°C° 0 mm 6 m/S 760 mmHg 32%
16:00 +28°C° 0 mm 6 m/S 760 mmHg 35%
17:00 +28°C° 0 mm 6 m/S 760 mmHg 37%
18:00 +27°C° 0 mm 6 m/S 760 mmHg 39%
19:00 +26°C° 0 mm 5 m/S 760 mmHg 42%
20:00 +23°C° 0 mm 4 m/S 761 mmHg 46%
21:00 +21°C° 0 mm 4 m/S 761 mmHg 49%
22:00 +21°C° 0 mm 5 m/S 761 mmHg 50%
23:00 +21°C° 0 mm 6 m/S 761 mmHg 51%

19 Juni, Samstag

Zeit Temperatur Niederschläge Wind Luftdruck Luftfeuchtigkeit
00:00 +20°C° 0 mm 6 m/S 762 mmHg 52%
01:00 +20°C° 0 mm 6 m/S 762 mmHg 53%
02:00 +19°C° 0 mm 6 m/S 762 mmHg 54%
03:00 +17°C° 0 mm 5 m/S 762 mmHg 54%
04:00 +17°C° 0 mm 6 m/S 762 mmHg 57%
05:00 +17°C° 0 mm 6 m/S 763 mmHg 60%
06:00 +17°C° 0 mm 6 m/S 763 mmHg 63%
07:00 +20°C° 0 mm 6 m/S 763 mmHg 56%
08:00 +22°C° 0 mm 6 m/S 763 mmHg 50%
09:00 +24°C° 0 mm 7 m/S 763 mmHg 44%
10:00 +26°C° 0 mm 7 m/S 763 mmHg 40%
11:00 +27°C° 0 mm 7 m/S 762 mmHg 37%
12:00 +28°C° 0 mm 7 m/S 762 mmHg 33%
13:00 +29°C° 0 mm 7 m/S 762 mmHg 31%
14:00 +29°C° 0 mm 7 m/S 762 mmHg 30%
15:00 +30°C° 0 mm 7 m/S 761 mmHg 28%
16:00 +29°C° 0 mm 7 m/S 761 mmHg 30%
17:00 +29°C° 0 mm 7 m/S 761 mmHg 31%
18:00 +28°C° 0 mm 6 m/S 761 mmHg 33%
19:00 +26°C° 0 mm 6 m/S 761 mmHg 35%
20:00 +23°C° 0 mm 5 m/S 761 mmHg 38%
21:00 +21°C° 0 mm 4 m/S 761 mmHg 40%
22:00 +21°C° 0 mm 4 m/S 761 mmHg 40%
23:00 +20°C° 0 mm 4 m/S 761 mmHg 40%

20 Juni, Sonntag

Zeit Temperatur Niederschläge Wind Luftdruck Luftfeuchtigkeit
00:00 +19°C° 0 mm 5 m/S 761 mmHg 40%
01:00 +19°C° 0 mm 5 m/S 761 mmHg 40%
02:00 +19°C° 0 mm 5 m/S 761 mmHg 40%
03:00 +19°C° 0 mm 5 m/S 761 mmHg 40%
04:00 +19°C° 0 mm 5 m/S 761 mmHg 42%
05:00 +19°C° 0 mm 5 m/S 761 mmHg 44%
06:00 +19°C° 0 mm 6 m/S 761 mmHg 46%
07:00 +22°C° 0 mm 6 m/S 761 mmHg 41%
08:00 +26°C° 0 mm 7 m/S 761 mmHg 35%
09:00 +28°C° 0 mm 8 m/S 761 mmHg 29%
10:00 +29°C° 0 mm 8 m/S 760 mmHg 27%
11:00 +32°C° 0 mm 8 m/S 760 mmHg 24%
12:00 +33°C° 0 mm 8 m/S 760 mmHg 22%
13:00 +33°C° 0 mm 8 m/S 759 mmHg 21%
14:00 +34°C° 0 mm 8 m/S 759 mmHg 20%
15:00 +34°C° 0 mm 8 m/S 759 mmHg 19%
16:00 +34°C° 0 mm 7 m/S 758 mmHg 21%
17:00 +33°C° 0 mm 7 m/S 758 mmHg 24%
18:00 +32°C° 0 mm 6 m/S 758 mmHg 26%
19:00 +29°C° 0 mm 5 m/S 758 mmHg 29%
20:00 +27°C° 0 mm 5 m/S 759 mmHg 32%
21:00 +25°C° 0 mm 4 m/S 759 mmHg 35%
22:00 +23°C° 0 mm 4 m/S 759 mmHg 36%
23:00 +22°C° 0 mm 4 m/S 759 mmHg 37%
Mehr zeigen

Wir brauchen deine Erlaubnis

Meteoprog und unser Service Anbieter werden persönliche Daten aufbewahren, so wie Cookies, Geräte Bezeichnung oder ähnliche Technologien von deinem Gerät und Prozess, so wie Persönliche Daten Inhalte und Werbungen, genauso wie social Media und den Verkehr zu analysieren.

  • Aufbewahrung und/oder Zugang zu deiner Geräte Informationen.

    Cookies, Geräte Bezeichnung oder andere Informationen, können aufbewahrt oder Zugang zu deinem Gerät erhalten, für den Grund, der oben angegeben wird.

  • Personalisierte Werbung und Inhalte, Messungen, Einblick in das Publikum und Produkt Entwicklung.

    Werbungen und Inhalte können personalisiert werden, basierend auf ein Profil. Mehr Daten können besser personalisierte Werbungen und Inhalte hinzufügen. Werbung und Inhalte können gezeigt und gemessen werden. Einblicke über das Publikum, welche die Werbung gesehen haben und den Inhalt, können abgeleitet werden. So wie Daten können genutzt werden, um es zu verbessern oder die Benutzer Erfahrung zu verbessern das System und die Software.

Wenn du “Ich stimme zu” klickst, erlaubst du uns, die Cookies zu benutzen die Geräte Bezeichnung, den Web oder ähnliche Technologien zu benutzen. Deine Settings, können in deinem Gerät bei deinem Browser geändert werden.

Für den bestimmten Zweck, berechtigten Interessen beruhen darauf, mehr als auf den Inhalt. Du kannst mehr darüber in unseren Privaten und Cookie Politik lesen.